When you browse on this site, cookies collect data to enhance your experience and personalize the content and advertising you see.
Visit our Privacy Policy to learn more. By continuing to use the site, you agree to this use of cookies and data.
  • In Hungary
  • List of Countries
  • For 7 days
  • Water Temperature
  • Weather Map
  • News
  • Weather Widgets
  • user-avatar
    Login

    Hourly Weather Pobeda

    Today, 12 December, Thursday

    Time Temperature Precipitation Wind Pressure Humidity
    00:00 +8°C° 0 mm 0 mps 739 mmHg 78%
    01:00 +8°C° 0 mm 0 mps 739 mmHg 79%
    02:00 +9°C° 0 mm 1 mps 739 mmHg 79%
    03:00 +9°C° 0 mm 1 mps 739 mmHg 80%
    04:00 +9°C° 0 mm 1 mps 739 mmHg 81%
    05:00 +9°C° 0 mm 1 mps 739 mmHg 81%
    06:00 +9°C° 0 mm 1 mps 739 mmHg 81%
    07:00 +8°C° 0 mm 2 mps 739 mmHg 81%
    08:00 +8°C° 0 mm 2 mps 740 mmHg 81%
    09:00 +9°C° 0 mm 2 mps 739 mmHg 74%
    10:00 +10°C° 0 mm 2 mps 739 mmHg 68%
    11:00 +12°C° 0 mm 2 mps 739 mmHg 61%
    12:00 +13°C° 0 mm 2 mps 739 mmHg 58%
    13:00 +13°C° 0 mm 2 mps 739 mmHg 55%
    14:00 +14°C° 0 mm 2 mps 738 mmHg 52%
    15:00 +13°C° 0 mm 2 mps 739 mmHg 55%
    16:00 +13°C° 0 mm 2 mps 739 mmHg 58%
    17:00 +12°C° 0 mm 2 mps 739 mmHg 61%
    18:00 +10°C° 0 mm 2 mps 739 mmHg 62%
    19:00 +10°C° 0 mm 2 mps 740 mmHg 64%
    20:00 +9°C° 0 mm 2 mps 740 mmHg 65%
    21:00 +9°C° 0.1 mm 2 mps 740 mmHg 67%
    22:00 +10°C° 0.1 mm 1 mps 740 mmHg 68%
    23:00 +10°C° 0.1 mm 1 mps 740 mmHg 70%

    Tomorrow, 13 December, Friday

    Time Temperature Precipitation Wind Pressure Humidity
    00:00 +9°C° 0 mm 1 mps 740 mmHg 70%
    01:00 +9°C° 0 mm 1 mps 740 mmHg 70%
    02:00 +9°C° 0 mm 1 mps 740 mmHg 70%
    03:00 +9°C° 0 mm 1 mps 740 mmHg 69%
    04:00 +8°C° 0 mm 1 mps 740 mmHg 68%
    05:00 +8°C° 0 mm 1 mps 740 mmHg 67%
    06:00 +8°C° 0 mm 1 mps 740 mmHg 68%
    07:00 +7°C° 0 mm 1 mps 740 mmHg 70%
    08:00 +7°C° 0 mm 1 mps 740 mmHg 71%
    09:00 +7°C° 0 mm 2 mps 740 mmHg 65%
    10:00 +8°C° 0 mm 3 mps 740 mmHg 58%
    11:00 +8°C° 0 mm 4 mps 740 mmHg 52%
    12:00 +10°C° 0 mm 4 mps 739 mmHg 49%
    13:00 +9°C° 0 mm 5 mps 739 mmHg 46%
    14:00 +10°C° 0 mm 5 mps 738 mmHg 43%
    15:00 +9°C° 0 mm 5 mps 738 mmHg 45%
    16:00 +10°C° 0 mm 4 mps 738 mmHg 48%
    17:00 +9°C° 0 mm 3 mps 738 mmHg 50%
    18:00 +8°C° 0 mm 3 mps 739 mmHg 53%
    19:00 +8°C° 0 mm 3 mps 739 mmHg 55%
    20:00 +6°C° 0 mm 4 mps 740 mmHg 58%
    21:00 +6°C° 0 mm 4 mps 740 mmHg 64%
    22:00 +5°C° 0 mm 4 mps 740 mmHg 71%
    23:00 +4°C° 0 mm 4 mps 740 mmHg 77%

    Day after tomorrow, 14 December, Saturday

    Time Temperature Precipitation Wind Pressure Humidity
    00:00 +4°C° 0.5 mm 4 mps 740 mmHg 82%
    01:00 +3°C° 0.5 mm 4 mps 740 mmHg 88%
    02:00 +2°C° 0.5 mm 3 mps 740 mmHg 93%
    03:00 +2°C° 1.8 mm 3 mps 740 mmHg 94%
    04:00 +1°C° 1.8 mm 3 mps 741 mmHg 94%
    05:00 +1°C° 1.8 mm 3 mps 741 mmHg 95%
    06:00 +2°C° 0.9 mm 2 mps 742 mmHg 93%
    07:00 +2°C° 0.9 mm 2 mps 742 mmHg 91%
    08:00 +2°C° 0.9 mm 2 mps 743 mmHg 89%
    09:00 +2°C° 0.4 mm 2 mps 744 mmHg 83%
    10:00 +2°C° 0.4 mm 2 mps 744 mmHg 77%
    11:00 +3°C° 0.4 mm 2 mps 745 mmHg 71%
    12:00 +3°C° 0 mm 2 mps 745 mmHg 66%
    13:00 +3°C° 0 mm 2 mps 745 mmHg 62%
    14:00 +4°C° 0 mm 2 mps 745 mmHg 57%
    15:00 +4°C° 0 mm 2 mps 746 mmHg 60%
    16:00 +4°C° 0 mm 1 mps 746 mmHg 63%
    17:00 +4°C° 0 mm 1 mps 747 mmHg 65%
    18:00 +4°C° 0 mm 1 mps 747 mmHg 68%
    19:00 +3°C° 0 mm 1 mps 748 mmHg 71%
    20:00 +3°C° 0 mm 1 mps 748 mmHg 74%
    21:00 +2°C° 0 mm 1 mps 748 mmHg 75%
    22:00 +2°C° 0 mm 1 mps 748 mmHg 76%
    23:00 +2°C° 0 mm 1 mps 749 mmHg 77%

    15 December, Sunday

    Time Temperature Precipitation Wind Pressure Humidity
    00:00 +2°C° 0 mm 1 mps 749 mmHg 78%
    01:00 +1°C° 0 mm 1 mps 749 mmHg 79%
    02:00 +1°C° 0 mm 1 mps 749 mmHg 80%
    03:00 +1°C° 0 mm 1 mps 748 mmHg 81%
    04:00 +1°C° 0 mm 1 mps 748 mmHg 81%
    05:00 +1°C° 0 mm 1 mps 748 mmHg 81%
    06:00 +1°C° 0 mm 1 mps 748 mmHg 81%
    07:00 +1°C° 0 mm 1 mps 749 mmHg 81%
    08:00 +1°C° 0 mm 1 mps 749 mmHg 81%
    09:00 +2°C° 0 mm 1 mps 749 mmHg 75%
    10:00 +3°C° 0 mm 1 mps 748 mmHg 70%
    11:00 +4°C° 0 mm 1 mps 748 mmHg 65%
    12:00 +4°C° 0 mm 1 mps 748 mmHg 61%
    13:00 +5°C° 0 mm 1 mps 748 mmHg 58%
    14:00 +6°C° 0 mm 1 mps 747 mmHg 54%
    15:00 +5°C° 0 mm 1 mps 747 mmHg 56%
    16:00 +5°C° 0 mm 1 mps 747 mmHg 58%
    17:00 +4°C° 0 mm 1 mps 747 mmHg 60%
    18:00 +4°C° 0 mm 1 mps 748 mmHg 61%
    19:00 +3°C° 0 mm 2 mps 748 mmHg 61%
    20:00 +2°C° 0 mm 2 mps 748 mmHg 62%
    21:00 +2°C° 0 mm 2 mps 748 mmHg 61%
    22:00 +2°C° 0 mm 2 mps 748 mmHg 60%
    23:00 +2°C° 0 mm 2 mps 748 mmHg 59%

    16 December, Monday

    Time Temperature Precipitation Wind Pressure Humidity
    00:00 +1°C° 0 mm 2 mps 748 mmHg 56%
    01:00 +1°C° 0 mm 2 mps 748 mmHg 54%
    02:00 +1°C° 0 mm 2 mps 748 mmHg 51%
    03:00 +1°C° 0 mm 2 mps 748 mmHg 50%
    04:00 -1°C° 0 mm 2 mps 748 mmHg 48%
    05:00 -1°C° 0 mm 2 mps 748 mmHg 46%
    06:00 +1°C° 0 mm 1 mps 748 mmHg 45%
    07:00 +1°C° 0 mm 1 mps 748 mmHg 44%
    08:00 +1°C° 0 mm 1 mps 748 mmHg 44%
    09:00 +3°C° 0 mm 1 mps 748 mmHg 40%
    10:00 +4°C° 0 mm 1 mps 748 mmHg 37%
    11:00 +6°C° 0 mm 1 mps 748 mmHg 33%
    12:00 +6°C° 0 mm 1 mps 748 mmHg 32%
    13:00 +7°C° 0 mm 1 mps 747 mmHg 31%
    14:00 +8°C° 0 mm 1 mps 747 mmHg 29%
    15:00 +7°C° 0 mm 1 mps 747 mmHg 32%
    16:00 +7°C° 0 mm 1 mps 748 mmHg 34%
    17:00 +6°C° 0 mm 1 mps 748 mmHg 37%
    18:00 +5°C° 0 mm 1 mps 748 mmHg 38%
    19:00 +5°C° 0 mm 1 mps 748 mmHg 40%
    20:00 +4°C° 0 mm 1 mps 748 mmHg 42%
    21:00 +4°C° 0 mm 1 mps 748 mmHg 43%
    22:00 +4°C° 0 mm 1 mps 748 mmHg 45%
    23:00 +3°C° 0 mm 1 mps 748 mmHg 46%

    17 December, Tuesday

    Time Temperature Precipitation Wind Pressure Humidity
    00:00 +3°C° 0 mm 1 mps 748 mmHg 47%
    01:00 +3°C° 0 mm 1 mps 748 mmHg 47%
    02:00 +2°C° 0 mm 1 mps 748 mmHg 48%
    03:00 +2°C° 0 mm 1 mps 748 mmHg 48%
    04:00 +2°C° 0 mm 1 mps 748 mmHg 48%
    05:00 +2°C° 0 mm 1 mps 748 mmHg 49%
    06:00 +2°C° 0 mm 1 mps 749 mmHg 49%
    07:00 +2°C° 0 mm 1 mps 749 mmHg 49%
    08:00 +2°C° 0 mm 1 mps 749 mmHg 50%
    09:00 +3°C° 0 mm 1 mps 749 mmHg 45%
    10:00 +5°C° 0 mm 1 mps 749 mmHg 41%
    11:00 +6°C° 0 mm 1 mps 749 mmHg 37%
    12:00 +7°C° 0 mm 1 mps 749 mmHg 35%
    13:00 +7°C° 0 mm 2 mps 748 mmHg 33%
    14:00 +8°C° 0 mm 2 mps 748 mmHg 30%
    15:00 +7°C° 0 mm 2 mps 748 mmHg 33%
    16:00 +8°C° 0 mm 1 mps 748 mmHg 35%
    17:00 +7°C° 0 mm 1 mps 748 mmHg 37%
    18:00 +6°C° 0 mm 1 mps 748 mmHg 37%
    19:00 +6°C° 0 mm 1 mps 748 mmHg 38%
    20:00 +5°C° 0 mm 1 mps 748 mmHg 39%
    21:00 +5°C° 0 mm 1 mps 748 mmHg 40%
    22:00 +4°C° 0 mm 1 mps 748 mmHg 41%
    23:00 +4°C° 0 mm 1 mps 748 mmHg 42%
    Show more